Location: Diebersbach
(48.5163°N, 8.0558°E)
Time: 10:00:38
(UTC+00:00)

ADEOS Rocket - Pass Details

Date: 20 June 2021
Orbit: 858 x 1307 km, 98.7° (Epoch: 27 July)

Event Time Altitude Azimuth Distance (km) Brightness Sun altitude
Rises 00:46:02 0° 143° (SE) 4,165 6.0 -16.0°
Reaches altitude 10° 00:48:52 10° 138° (SE) 3,152 5.4 -15.9°
Maximum altitude 00:55:43 49° 67° (ENE) 1,423 4.1 -15.5°
Drops below altitude 10° 01:01:58 10° 355° (N) 2,871 6.5 -15.1°
Sets 01:04:26 0° 350° (N) 3,766 7.1 -15.0°
